GFSSW_500_temp_105.txt.gz
Temp
-17 -16 -16 -16 -16 -16 -16 -15 -15 -14 -14 -14 -13 -13 -13 -13 -13 -12 -12 -12 -11 -11 -10 -10 -11 -11 -10 -10 -10 -10 -10 -9 -10 -9 -9 -9 -9 -9 -8 -8 -9 -8 -8 -8 -8
-16 -16 -16 -16 -16 -16 -16 -16 -16 -15 -15 -14 -14 -13 -14 -13 -13 -12 -13 -13 -12 -12 -11 -11 -11 -11 -11 -10 -10 -10 -10 -10 -10 -9 -9 -10 -9 -9 -8 -9 -9 -9 -9 -8 -8
-16 -16 -16 -16 -16 -16 -16 -16 -16 -16 -15 -15 -14 -14 -14 -14 -13 -12 -13 -13 -12 -12 -12 -11 -11 -11 -11 -11 -10 -10 -10 -10 -10 -10 -10 -10 -9 -9 -9 -9 -8 -9 -9 -9 -8
-16 -16 -16 -16 -16 -16 -15 -16 -16 -16 -16 -15 -15 -14 -14 -14 -13 -13 -13 -13 -13 -12 -12 -11 -11 -10 -10 -10 -11 -11 -11 -10 -10 -10 -10 -10 -9 -9 -9 -9 -9 -9 -9 -9 -8
-16 -16 -16 -16 -16 -16 -16 -16 -16 -16 -17 -16 -16 -15 -15 -14 -13 -13 -13 -13 -13 -12 -12 -11 -11 -11 -10 -11 -11 -11 -11 -10 -10 -10 -10 -10 -10 -9 -9 -9 -9 -9 -9 -9 -9
-17 -17 -16 -16 -16 -16 -16 -16 -16 -17 -17 -17 -17 -16 -15 -14 -13 -14 -14 -13 -13 -13 -13 -12 -11 -11 -12 -11 -11 -11 -11 -11 -10 -10 -10 -10 -10 -10 -10 -9 -9 -10 -9 -9 -9
-18 -18 -17 -17 -17 -17 -17 -17 -17 -18 -18 -18 -18 -17 -16 -14 -14 -15 -15 -14 -13 -14 -14 -13 -12 -12 -12 -12 -12 -11 -11 -11 -10 -10 -10 -10 -10 -10 -10 -9 -9 -9 -9 -9 -9
-19 -18 -18 -18 -18 -18 -18 -18 -18 -19 -20 -19 -19 -18 -17 -16 -16 -16 -16 -14 -13 -14 -14 -14 -13 -12 -12 -11 -12 -11 -11 -10 -10 -11 -11 -11 -10 -10 -10 -9 -10 -9 -9 -9 -9
-19 -19 -19 -19 -19 -19 -19 -19 -19 -20 -21 -21 -20 -19 -18 -17 -16 -16 -16 -15 -14 -14 -14 -14 -14 -13 -12 -12 -12 -11 -10 -11 -11 -10 -11 -10 -11 -11 -10 -10 -10 -9 -9 -9 -9
-20 -20 -20 -19 -20 -20 -20 -20 -21 -21 -21 -21 -20 -20 -18 -17 -17 -17 -17 -16 -15 -14 -14 -14 -14 -13 -12 -11 -10 -10 -10 -10 -11 -10 -11 -12 -11 -11 -11 -10 -10 -10 -10 -9 -9
-21 -21 -21 -21 -21 -21 -21 -21 -21 -21 -21 -20 -20 -19 -17 -17 -18 -17 -17 -16 -16 -15 -14 -14 -14 -12 -11 -12 -12 -11 -11 -11 -11 -11 -10 -11 -11 -11 -10 -10 -10 -10 -10 -9 -9
-23 -23 -23 -23 -23 -23 -22 -21 -21 -21 -21 -21 -21 -20 -19 -17 -18 -17 -17 -17 -17 -15 -14 -14 -13 -13 -13 -13 -13 -12 -11 -11 -11 -10 -10 -11 -10 -11 -10 -10 -10 -10 -10 -10 -10
-24 -24 -23 -23 -24 -23 -23 -23 -23 -22 -22 -21 -21 -20 -19 -18 -17 -17 -17 -17 -16 -16 -15 -14 -13 -14 -13 -13 -13 -13 -12 -12 -11 -10 -10 -10 -10 -10 -11 -11 -10 -9 -10 -10 -10
-24 -24 -24 -24 -24 -24 -23 -23 -23 -23 -22 -22 -21 -20 -19 -19 -19 -18 -17 -17 -16 -16 -15 -14 -14 -14 -13 -13 -13 -13 -13 -12 -11 -11 -11 -10 -9 -10 -10 -10 -10 -10 -10 -10 -10
-24 -24 -24 -24 -24 -24 -24 -24 -24 -23 -23 -22 -21 -20 -19 -20 -18 -17 -17 -17 -17 -16 -15 -14 -14 -14 -14 -13 -13 -13 -13 -12 -12 -12 -11 -10 -9 -9 -10 -10 -10 -11 -11 -11 -10
-25 -25 -25 -25 -25 -25 -25 -25 -25 -24 -23 -22 -21 -20 -20 -19 -18 -18 -17 -17 -16 -16 -16 -15 -14 -15 -14 -14 -14 -13 -13 -13 -13 -12 -11 -10 -10 -8 -9 -10 -12 -11 -11 -11 -11
-25 -25 -25 -25 -25 -25 -25 -25 -25 -25 -23 -22 -21 -21 -19 -19 -18 -18 -17 -17 -17 -17 -17 -17 -15 -14 -14 -14 -14 -14 -13 -13 -13 -13 -10 -11 -10 -8 -8 -10 -11 -11 -11 -11 -10
-26 -26 -26 -26 -26 -26 -25 -26 -26 -24 -23 -22 -20 -21 -21 -19 -19 -18 -18 -17 -17 -17 -16 -17 -16 -15 -14 -14 -13 -13 -14 -13 -13 -12 -11 -11 -9 -9 -10 -11 -11 -11 -12 -11 -11
-26 -26 -26 -26 -26 -26 -26 -26 -25 -24 -23 -22 -22 -20 -21 -20 -19 -18 -18 -17 -17 -17 -17 -17 -17 -15 -15 -14 -14 -14 -14 -13 -13 -12 -12 -11 -10 -10 -10 -11 -11 -11 -11 -11 -11
-26 -26 -26 -26 -26 -26 -26 -26 -25 -24 -23 -22 -22 -20 -19 -20 -19 -18 -17 -17 -17 -17 -17 -17 -17 -16 -14 -14 -14 -14 -14 -14 -14 -13 -12 -11 -11 -10 -11 -11 -11 -11 -11 -11 -11
-26 -26 -26 -26 -27 -27 -26 -25 -25 -23 -22 -22 -20 -19 -19 -18 -19 -18 -17 -17 -16 -17 -17 -17 -17 -16 -16 -15 -13 -14 -13 -14 -14 -13 -13 -12 -12 -11 -11 -12 -11 -11 -11 -11 -11
-26 -26 -26 -26 -27 -27 -26 -25 -24 -24 -23 -21 -21 -20 -18 -18 -19 -18 -17 -16 -16 -17 -16 -17 -17 -17 -16 -15 -15 -15 -14 -15 -14 -12 -12 -12 -11 -11 -11 -11 -11 -11 -11 -11 -11
-26 -26 -27 -27 -27 -26 -25 -25 -25 -25 -23 -21 -20 -20 -19 -18 -19 -18 -17 -17 -17 -16 -17 -17 -17 -17 -17 -17 -16 -15 -14 -14 -15 -15 -13 -13 -11 -12 -12 -12 -12 -12 -12 -12 -12
-26 -26 -27 -26 -26 -26 -26 -25 -24 -24 -22 -21 -20 -20 -20 -19 -18 -18 -18 -18 -17 -17 -18 -17 -17 -17 -15 -14 -15 -15 -15 -15 -16 -15 -14 -13 -12 -12 -12 -13 -14 -13 -12 -12 -12
-26 -26 -26 -26 -26 -26 -25 -24 -24 -23 -21 -21 -21 -20 -20 -20 -18 -18 -17 -18 -17 -18 -18 -18 -17 -17 -17 -17 -17 -17 -17 -18 -18 -15 -16 -13 -13 -14 -14 -13 -12 -13 -13 -13 -12
-27 -27 -26 -26 -26 -25 -25 -24 -24 -23 -22 -21 -20 -19 -19 -19 -17 -16 -15 -17 -17 -17 -18 -17 -17 -17 -17 -17 -18 -18 -18 -18 -17 -15 -16 -14 -14 -15 -15 -14 -14 -14 -13 -13 -13
-27 -27 -26 -26 -26 -25 -24 -24 -24 -22 -21 -21 -20 -19 -19 -19 -19 -18 -18 -17 -17 -17 -16 -17 -17 -17 -17 -17 -18 -18 -16 -17 -17 -17 -16 -16 -14 -16 -14 -14 -14 -14 -14 -14 -13

GFSSW_500_temp_108.txt.gz
Temp
-16 -16 -16 -16 -15 -15 -15 -15 -15 -15 -15 -15 -14 -14 -14 -13 -12 -12 -12 -12 -12 -12 -12 -12 -11 -10 -10 -10 -10 -10 -10 -10 -10 -10 -9 -9 -9 -9 -9 -9 -8 -8 -8 -8 -8
-17 -17 -16 -16 -16 -16 -16 -15 -15 -15 -15 -15 -15 -14 -14 -14 -13 -12 -12 -13 -13 -12 -12 -12 -11 -10 -10 -11 -10 -10 -10 -10 -10 -10 -9 -9 -9 -9 -9 -9 -8 -8 -8 -8 -8
-17 -17 -17 -16 -16 -16 -16 -16 -16 -16 -15 -15 -15 -15 -15 -14 -14 -12 -13 -13 -13 -13 -12 -12 -11 -11 -11 -11 -11 -10 -10 -10 -9 -10 -10 -10 -9 -9 -9 -9 -8 -8 -8 -8 -8
-18 -17 -17 -17 -17 -17 -17 -16 -16 -16 -16 -16 -16 -15 -15 -15 -14 -13 -13 -13 -13 -13 -13 -12 -11 -11 -11 -10 -11 -11 -10 -10 -10 -10 -10 -10 -10 -10 -9 -9 -8 -8 -8 -8 -8
-18 -18 -18 -18 -17 -17 -17 -17 -17 -17 -16 -16 -16 -16 -16 -15 -13 -13 -14 -13 -13 -13 -13 -13 -12 -12 -11 -12 -11 -11 -11 -11 -10 -10 -10 -10 -10 -9 -9 -8 -8 -8 -8 -8 -8
-19 -19 -18 -18 -18 -17 -18 -17 -17 -17 -17 -17 -17 -16 -16 -14 -15 -14 -14 -14 -13 -13 -14 -13 -13 -13 -12 -12 -11 -11 -11 -11 -11 -11 -10 -10 -10 -10 -9 -8 -8 -8 -8 -8 -9
-19 -19 -19 -18 -18 -17 -18 -18 -17 -17 -17 -18 -17 -17 -16 -14 -15 -15 -14 -14 -14 -14 -14 -14 -13 -13 -12 -12 -12 -12 -11 -10 -10 -11 -10 -10 -10 -10 -10 -9 -8 -8 -8 -8 -9
-20 -19 -19 -19 -18 -18 -18 -18 -18 -17 -18 -18 -18 -17 -15 -15 -15 -15 -15 -15 -15 -14 -14 -14 -13 -13 -12 -11 -11 -11 -11 -11 -11 -11 -10 -10 -10 -10 -10 -10 -9 -9 -8 -9 -8
-20 -20 -19 -19 -18 -18 -18 -18 -18 -18 -18 -18 -18 -17 -16 -15 -15 -15 -15 -15 -15 -15 -14 -14 -14 -13 -13 -12 -12 -11 -10 -11 -11 -11 -10 -10 -10 -10 -11 -10 -10 -9 -9 -9 -8
-20 -20 -19 -19 -18 -18 -18 -19 -19 -18 -19 -19 -18 -18 -15 -14 -15 -16 -17 -16 -16 -15 -15 -14 -14 -13 -13 -12 -11 -11 -11 -11 -11 -11 -11 -11 -12 -11 -11 -11 -10 -9 -9 -9 -9
-20 -20 -20 -19 -19 -18 -19 -20 -19 -18 -17 -17 -16 -15 -15 -15 -16 -16 -17 -17 -17 -16 -15 -15 -14 -13 -13 -13 -12 -12 -12 -11 -11 -12 -11 -10 -11 -12 -11 -10 -10 -10 -9 -9 -9
-21 -21 -20 -20 -20 -20 -20 -19 -19 -18 -18 -18 -17 -17 -17 -17 -17 -17 -18 -18 -17 -17 -16 -15 -13 -13 -13 -13 -13 -13 -12 -11 -12 -11 -11 -10 -10 -11 -11 -10 -10 -10 -10 -10 -9
-22 -21 -21 -21 -21 -20 -20 -20 -20 -19 -19 -19 -19 -19 -18 -18 -18 -18 -18 -18 -18 -17 -17 -15 -13 -14 -14 -13 -13 -13 -12 -12 -13 -12 -11 -11 -10 -10 -11 -11 -10 -10 -10 -10 -10
-23 -22 -22 -21 -21 -21 -21 -21 -21 -20 -21 -20 -20 -19 -19 -19 -19 -19 -18 -18 -18 -18 -17 -16 -15 -15 -14 -14 -13 -13 -13 -13 -12 -12 -11 -11 -9 -10 -10 -10 -11 -10 -11 -10 -10
-23 -23 -22 -22 -21 -21 -21 -22 -22 -23 -23 -21 -21 -19 -19 -19 -18 -19 -19 -19 -18 -17 -16 -16 -16 -14 -14 -13 -14 -13 -13 -14 -13 -12 -12 -11 -10 -9 -10 -10 -10 -11 -11 -11 -10
-23 -23 -24 -24 -23 -23 -23 -23 -23 -24 -23 -22 -20 -20 -20 -20 -19 -19 -20 -19 -18 -17 -17 -17 -16 -16 -14 -15 -15 -14 -14 -14 -14 -13 -12 -11 -10 -8 -10 -10 -11 -11 -11 -11 -11
-24 -24 -24 -24 -24 -23 -23 -23 -24 -24 -22 -22 -20 -20 -20 -20 -20 -20 -20 -18 -18 -17 -17 -17 -17 -16 -15 -15 -15 -15 -14 -14 -15 -14 -11 -11 -10 -8 -9 -10 -11 -11 -11 -11 -10
-24 -24 -24 -24 -24 -24 -24 -25 -25 -23 -22 -21 -22 -21 -21 -21 -21 -20 -19 -19 -18 -18 -17 -17 -17 -17 -16 -15 -14 -13 -14 -14 -13 -12 -11 -12 -10 -9 -10 -11 -11 -11 -11 -10 -10
-25 -25 -25 -25 -25 -25 -25 -25 -24 -23 -23 -23 -22 -22 -21 -21 -21 -20 -19 -18 -18 -17 -18 -17 -17 -16 -16 -16 -15 -15 -15 -14 -14 -13 -12 -11 -11 -11 -10 -11 -11 -11 -10 -10 -10
-25 -25 -25 -25 -25 -25 -25 -25 -24 -24 -23 -23 -23 -22 -22 -21 -21 -21 -20 -19 -18 -17 -17 -17 -17 -16 -17 -17 -16 -15 -14 -15 -15 -13 -12 -11 -11 -11 -11 -11 -11 -11 -11 -11 -11
-25 -25 -25 -25 -26 -26 -25 -25 -25 -25 -24 -23 -23 -22 -22 -21 -20 -19 -19 -18 -18 -17 -17 -17 -17 -17 -17 -17 -16 -15 -14 -15 -15 -13 -13 -12 -12 -11 -12 -11 -11 -11 -11 -11 -11
-25 -25 -26 -26 -26 -26 -25 -25 -25 -25 -24 -24 -22 -22 -20 -20 -20 -20 -20 -19 -19 -18 -17 -17 -17 -17 -17 -16 -16 -17 -15 -15 -14 -13 -13 -12 -12 -12 -12 -12 -12 -11 -11 -11 -11
-25 -25 -26 -26 -26 -25 -25 -25 -25 -25 -25 -24 -22 -22 -22 -20 -20 -19 -18 -19 -19 -19 -18 -18 -17 -17 -17 -17 -17 -17 -16 -15 -15 -15 -13 -13 -12 -13 -12 -12 -12 -12 -11 -11 -11
-25 -26 -26 -26 -25 -25 -26 -25 -25 -25 -25 -24 -22 -22 -23 -22 -20 -19 -19 -18 -19 -19 -18 -18 -17 -17 -16 -15 -15 -15 -15 -15 -16 -15 -13 -12 -12 -13 -13 -14 -14 -13 -12 -12 -12
-26 -26 -25 -25 -25 -25 -26 -26 -26 -26 -25 -24 -24 -22 -22 -22 -21 -19 -19 -19 -19 -19 -19 -18 -17 -18 -18 -17 -17 -17 -16 -16 -17 -14 -15 -13 -13 -14 -14 -14 -14 -14 -13 -13 -12
-26 -25 -25 -25 -26 -26 -26 -26 -26 -25 -25 -23 -22 -22 -21 -20 -20 -20 -19 -19 -18 -18 -18 -18 -17 -17 -18 -17 -17 -17 -17 -17 -18 -16 -16 -13 -13 -13 -15 -14 -13 -14 -14 -14 -14
-26 -26 -26 -26 -26 -26 -26 -26 -25 -25 -25 -24 -24 -23 -21 -20 -20 -19 -19 -19 -18 -18 -17 -17 -17 -17 -18 -17 -17 -18 -16 -16 -15 -16 -15 -15 -14 -15 -15 -15 -15 -15 -15 -14 -14

GFSSW_500_temp_111.txt.gz
Temp
-17 -17 -17 -16 -16 -16 -16 -16 -15 -15 -15 -15 -14 -15 -14 -14 -13 -12 -13 -13 -13 -13 -12 -11 -11 -11 -11 -11 -11 -10 -10 -10 -10 -10 -9 -9 -10 -9 -9 -8 -8 -8 -8 -7 -7
-18 -17 -17 -17 -16 -16 -16 -16 -16 -16 -15 -15 -15 -15 -15 -14 -14 -13 -13 -13 -13 -13 -12 -12 -11 -11 -11 -12 -10 -11 -11 -10 -10 -10 -9 -9 -10 -9 -9 -9 -9 -8 -8 -7 -7
-18 -18 -17 -17 -17 -16 -16 -16 -16 -16 -16 -16 -16 -15 -15 -15 -14 -13 -13 -13 -13 -13 -13 -12 -12 -11 -11 -12 -11 -11 -11 -11 -10 -10 -10 -10 -10 -10 -9 -9 -8 -8 -8 -7 -7
-19 -18 -18 -17 -17 -17 -16 -16 -16 -16 -16 -16 -16 -16 -16 -15 -15 -14 -13 -13 -13 -13 -13 -12 -12 -12 -12 -12 -12 -11 -11 -11 -10 -10 -10 -10 -10 -10 -9 -9 -8 -9 -8 -8 -8
-19 -18 -18 -18 -17 -17 -17 -17 -17 -16 -16 -16 -16 -16 -16 -15 -15 -14 -14 -14 -13 -13 -13 -13 -13 -12 -12 -12 -12 -12 -11 -11 -11 -10 -10 -10 -10 -10 -9 -9 -8 -9 -8 -8 -8
-19 -19 -19 -18 -18 -17 -17 -17 -17 -17 -17 -17 -16 -16 -16 -16 -15 -15 -15 -15 -14 -13 -13 -13 -13 -13 -13 -12 -12 -12 -11 -11 -11 -11 -11 -10 -10 -10 -9 -9 -9 -9 -8 -8 -8
-19 -19 -19 -19 -18 -18 -18 -18 -17 -17 -17 -17 -17 -17 -16 -16 -16 -15 -15 -15 -14 -14 -13 -13 -13 -13 -12 -12 -12 -12 -11 -12 -11 -11 -11 -10 -10 -10 -10 -9 -9 -9 -9 -8 -8
-20 -19 -19 -19 -19 -19 -18 -18 -18 -18 -17 -17 -17 -17 -16 -16 -16 -16 -16 -15 -15 -15 -14 -13 -13 -13 -13 -12 -12 -12 -12 -11 -11 -11 -11 -10 -11 -11 -10 -10 -9 -9 -9 -9 -8
-20 -20 -20 -20 -19 -19 -19 -19 -18 -18 -18 -18 -18 -17 -16 -16 -16 -16 -16 -16 -15 -15 -15 -14 -13 -13 -13 -13 -13 -12 -11 -12 -12 -11 -11 -10 -11 -11 -11 -10 -10 -9 -9 -9 -9
-20 -20 -20 -20 -20 -20 -19 -19 -19 -19 -19 -19 -18 -18 -16 -15 -16 -16 -16 -16 -16 -16 -15 -15 -14 -13 -13 -12 -11 -12 -12 -12 -12 -12 -12 -12 -11 -12 -11 -11 -10 -10 -9 -9 -9
-21 -21 -21 -21 -20 -20 -20 -20 -20 -19 -19 -18 -17 -16 -15 -16 -17 -16 -16 -16 -17 -17 -16 -15 -14 -13 -13 -12 -13 -12 -12 -12 -12 -13 -12 -12 -11 -11 -11 -11 -11 -10 -10 -9 -9
-22 -21 -21 -21 -21 -21 -21 -20 -20 -19 -18 -18 -18 -17 -17 -16 -17 -17 -17 -17 -17 -16 -16 -15 -13 -13 -14 -13 -13 -13 -12 -12 -12 -12 -12 -11 -11 -11 -11 -10 -10 -10 -10 -10 -9
-22 -22 -21 -21 -21 -21 -20 -20 -20 -20 -20 -19 -18 -17 -16 -16 -16 -17 -18 -17 -17 -17 -17 -16 -13 -14 -14 -14 -13 -13 -12 -12 -12 -12 -12 -11 -10 -11 -10 -11 -10 -10 -10 -10 -10
-22 -22 -22 -22 -21 -21 -21 -21 -21 -20 -20 -20 -19 -18 -17 -17 -17 -17 -17 -18 -18 -17 -18 -17 -16 -15 -15 -14 -14 -13 -13 -13 -13 -13 -12 -12 -10 -10 -11 -10 -10 -10 -11 -11 -10
-23 -23 -22 -22 -21 -21 -21 -21 -21 -22 -22 -20 -19 -18 -18 -17 -16 -17 -17 -18 -17 -17 -18 -15 -16 -15 -15 -13 -15 -14 -14 -14 -13 -13 -12 -12 -11 -9 -11 -10 -10 -10 -11 -11 -11
-23 -23 -23 -23 -22 -22 -22 -22 -23 -23 -22 -20 -19 -18 -18 -17 -16 -17 -18 -18 -18 -18 -18 -17 -17 -17 -15 -16 -17 -16 -16 -15 -14 -13 -12 -11 -11 -8 -9 -10 -11 -11 -10 -10 -10
-23 -23 -23 -23 -22 -22 -23 -23 -23 -23 -22 -20 -18 -18 -18 -18 -17 -17 -17 -17 -17 -18 -17 -17 -16 -18 -17 -16 -17 -16 -16 -16 -16 -15 -12 -11 -11 -9 -9 -10 -11 -11 -11 -11 -10
-23 -23 -23 -24 -24 -24 -24 -23 -23 -22 -22 -19 -19 -19 -18 -18 -18 -18 -18 -18 -17 -19 -18 -17 -17 -17 -16 -16 -15 -14 -16 -15 -14 -13 -12 -12 -10 -9 -9 -10 -11 -11 -11 -11 -10
-23 -24 -24 -24 -24 -24 -24 -24 -23 -22 -22 -20 -20 -20 -19 -19 -19 -19 -18 -19 -19 -18 -17 -17 -17 -17 -17 -17 -17 -16 -17 -16 -15 -14 -13 -12 -11 -11 -10 -11 -11 -11 -11 -11 -11
-23 -24 -24 -24 -24 -24 -24 -24 -24 -23 -22 -22 -21 -21 -20 -19 -20 -19 -19 -17 -18 -18 -18 -18 -18 -17 -17 -17 -16 -16 -16 -17 -17 -15 -14 -12 -11 -11 -10 -11 -11 -11 -11 -11 -11
-24 -24 -24 -25 -25 -25 -24 -24 -24 -24 -23 -23 -22 -21 -21 -22 -21 -20 -19 -18 -18 -18 -19 -19 -18 -18 -18 -17 -16 -16 -17 -16 -17 -16 -14 -13 -12 -11 -11 -11 -11 -11 -11 -11 -11
-24 -24 -25 -25 -25 -25 -24 -24 -24 -24 -24 -23 -23 -23 -23 -23 -22 -21 -20 -19 -19 -20 -20 -19 -19 -18 -17 -17 -18 -16 -16 -17 -16 -15 -14 -14 -12 -12 -12 -12 -12 -11 -11 -11 -11
-24 -25 -25 -25 -25 -25 -24 -25 -25 -24 -24 -24 -24 -24 -23 -23 -22 -22 -21 -20 -20 -20 -19 -19 -18 -18 -18 -17 -17 -17 -16 -17 -17 -17 -16 -14 -13 -13 -12 -12 -12 -12 -12 -11 -11
-25 -26 -25 -25 -25 -25 -25 -24 -24 -24 -24 -24 -24 -24 -23 -23 -22 -22 -21 -21 -21 -20 -21 -20 -19 -18 -18 -17 -16 -16 -15 -16 -16 -17 -15 -14 -13 -14 -13 -13 -13 -13 -12 -12 -12
-26 -26 -25 -25 -25 -25 -25 -25 -24 -24 -24 -24 -24 -24 -23 -23 -22 -21 -21 -21 -21 -20 -20 -20 -19 -18 -18 -18 -17 -17 -17 -16 -17 -16 -16 -14 -14 -14 -14 -15 -15 -14 -13 -12 -12
-26 -25 -25 -25 -25 -25 -24 -24 -24 -24 -24 -24 -24 -24 -24 -23 -22 -22 -21 -21 -20 -20 -21 -20 -19 -19 -19 -18 -18 -17 -17 -17 -17 -17 -17 -16 -16 -16 -16 -15 -14 -13 -14 -14 -13
-26 -25 -26 -26 -25 -25 -25 -25 -25 -25 -25 -25 -24 -24 -24 -23 -23 -23 -23 -22 -20 -19 -20 -20 -19 -19 -18 -18 -18 -17 -16 -16 -16 -16 -16 -16 -14 -16 -16 -15 -15 -15 -15 -15 -15

GFSSW_500_temp_114.txt.gz
Temp
-18 -18 -17 -17 -17 -16 -16 -16 -16 -15 -15 -15 -15 -15 -15 -14 -14 -13 -13 -12 -12 -12 -12 -12 -12 -12 -12 -11 -12 -11 -11 -11 -10 -9 -9 -9 -9 -9 -9 -9 -8 -9 -8 -7 -7
-18 -18 -18 -18 -18 -17 -17 -17 -16 -16 -15 -16 -15 -15 -15 -15 -15 -14 -13 -13 -12 -13 -12 -12 -12 -12 -12 -12 -11 -11 -11 -11 -10 -10 -10 -9 -9 -10 -9 -9 -8 -9 -8 -7 -7
-19 -18 -18 -18 -18 -18 -17 -17 -17 -16 -16 -16 -16 -15 -15 -15 -15 -14 -14 -14 -13 -13 -13 -12 -12 -12 -12 -12 -11 -11 -11 -11 -10 -10 -10 -10 -10 -10 -9 -9 -9 -9 -8 -8 -7
-19 -19 -19 -19 -19 -19 -18 -18 -17 -17 -16 -16 -16 -16 -16 -16 -15 -15 -15 -14 -14 -13 -13 -13 -13 -12 -12 -12 -12 -11 -11 -11 -10 -11 -11 -10 -10 -10 -9 -9 -9 -9 -8 -8 -7
-20 -19 -19 -19 -19 -19 -19 -18 -18 -17 -17 -16 -16 -16 -16 -16 -16 -15 -15 -15 -14 -14 -13 -13 -13 -13 -13 -12 -12 -11 -10 -11 -11 -11 -11 -10 -10 -10 -9 -9 -9 -9 -9 -8 -8
-20 -20 -19 -19 -19 -19 -19 -19 -18 -18 -18 -17 -17 -17 -17 -16 -16 -16 -15 -16 -15 -14 -14 -13 -14 -13 -13 -12 -12 -12 -10 -11 -11 -11 -11 -11 -10 -10 -10 -9 -9 -9 -9 -9 -8
-20 -20 -20 -20 -19 -19 -19 -19 -19 -18 -18 -18 -17 -17 -17 -16 -16 -16 -16 -16 -16 -15 -14 -14 -14 -13 -13 -12 -12 -12 -11 -10 -11 -11 -11 -11 -10 -10 -10 -9 -9 -9 -9 -9 -8
-21 -20 -20 -20 -20 -20 -20 -19 -19 -19 -19 -18 -18 -18 -17 -17 -16 -16 -16 -16 -16 -16 -15 -14 -14 -13 -13 -13 -12 -12 -12 -10 -11 -11 -12 -11 -11 -11 -10 -10 -9 -9 -10 -9 -9
-21 -21 -20 -20 -20 -20 -20 -20 -20 -19 -19 -19 -18 -18 -17 -17 -17 -16 -16 -16 -16 -16 -16 -15 -14 -14 -14 -13 -13 -12 -11 -11 -11 -11 -12 -11 -11 -11 -10 -10 -9 -9 -9 -9 -9
-21 -21 -20 -20 -20 -20 -20 -20 -20 -20 -20 -19 -19 -19 -17 -17 -16 -16 -16 -16 -16 -16 -16 -16 -15 -14 -14 -13 -12 -12 -12 -11 -12 -11 -12 -12 -12 -12 -11 -10 -10 -9 -9 -10 -9
-21 -21 -21 -20 -20 -20 -20 -20 -20 -20 -20 -19 -18 -18 -17 -17 -17 -16 -17 -17 -16 -16 -16 -16 -15 -14 -14 -13 -14 -13 -13 -12 -12 -12 -11 -11 -12 -12 -12 -10 -10 -10 -9 -9 -10
-21 -21 -21 -21 -21 -20 -20 -20 -20 -18 -18 -18 -19 -18 -17 -17 -17 -16 -17 -17 -16 -16 -16 -16 -15 -14 -15 -14 -14 -13 -12 -12 -12 -12 -11 -11 -11 -11 -12 -11 -11 -10 -9 -9 -9
-22 -22 -21 -21 -21 -21 -20 -20 -20 -20 -20 -19 -18 -18 -18 -18 -17 -17 -17 -17 -17 -17 -16 -16 -15 -15 -15 -14 -14 -13 -13 -12 -12 -12 -12 -11 -10 -11 -12 -12 -11 -10 -10 -10 -10
-22 -22 -21 -22 -22 -21 -21 -21 -21 -21 -21 -20 -19 -19 -18 -18 -18 -18 -18 -18 -18 -17 -17 -17 -16 -16 -16 -15 -15 -14 -13 -13 -13 -13 -12 -12 -10 -10 -11 -11 -11 -10 -10 -10 -10
-22 -22 -22 -22 -21 -20 -21 -21 -21 -21 -21 -20 -20 -19 -19 -18 -18 -18 -18 -19 -18 -18 -18 -16 -16 -15 -15 -14 -15 -14 -15 -14 -14 -13 -13 -12 -11 -9 -10 -10 -11 -11 -11 -10 -11
-22 -22 -22 -22 -22 -22 -22 -22 -22 -22 -22 -20 -20 -19 -19 -18 -18 -19 -18 -19 -18 -18 -18 -17 -17 -17 -15 -16 -17 -16 -16 -16 -15 -14 -13 -11 -11 -8 -9 -10 -11 -11 -11 -10 -10
-22 -22 -22 -22 -21 -22 -23 -23 -23 -22 -21 -20 -19 -19 -19 -18 -18 -19 -18 -18 -18 -17 -17 -16 -16 -16 -15 -16 -16 -15 -16 -16 -16 -16 -11 -11 -12 -8 -9 -9 -10 -11 -11 -11 -10
-22 -22 -22 -22 -23 -23 -23 -23 -23 -22 -21 -20 -20 -20 -20 -19 -19 -19 -19 -18 -18 -17 -17 -16 -16 -15 -15 -15 -15 -15 -17 -16 -15 -13 -11 -12 -11 -9 -9 -9 -10 -11 -11 -11 -10
-22 -23 -23 -22 -24 -23 -23 -24 -22 -22 -21 -21 -21 -21 -21 -20 -19 -19 -19 -18 -18 -17 -16 -16 -16 -16 -16 -17 -17 -16 -17 -15 -17 -16 -15 -14 -10 -10 -10 -10 -11 -11 -11 -11 -11
-23 -23 -23 -23 -24 -24 -24 -23 -23 -23 -22 -22 -21 -21 -20 -19 -19 -19 -19 -17 -17 -16 -17 -17 -17 -17 -18 -19 -18 -17 -17 -18 -18 -17 -16 -13 -10 -9 -10 -10 -11 -11 -11 -11 -11
-23 -23 -23 -24 -24 -24 -24 -24 -23 -23 -23 -22 -21 -21 -20 -20 -19 -19 -18 -17 -17 -18 -18 -17 -17 -18 -18 -18 -16 -17 -18 -17 -17 -17 -16 -14 -12 -11 -11 -12 -12 -12 -11 -11 -11
-23 -23 -23 -24 -24 -24 -24 -24 -23 -23 -23 -22 -22 -22 -21 -21 -20 -20 -19 -18 -19 -19 -18 -18 -18 -17 -18 -18 -18 -18 -18 -18 -18 -16 -15 -15 -13 -12 -12 -12 -13 -12 -12 -11 -11
-23 -23 -24 -24 -24 -24 -24 -24 -23 -22 -23 -22 -22 -21 -21 -22 -21 -21 -20 -19 -19 -20 -19 -19 -19 -18 -19 -19 -18 -17 -16 -17 -17 -17 -17 -16 -12 -14 -15 -14 -14 -13 -12 -11 -11
-22 -24 -24 -24 -24 -24 -24 -24 -24 -24 -23 -23 -23 -23 -23 -23 -23 -22 -21 -21 -20 -20 -21 -21 -20 -19 -18 -18 -18 -17 -17 -17 -18 -18 -16 -16 -15 -15 -15 -16 -16 -15 -14 -12 -12
-24 -23 -23 -23 -23 -23 -24 -24 -24 -24 -24 -24 -24 -24 -24 -24 -23 -23 -22 -22 -22 -22 -21 -21 -20 -20 -19 -19 -19 -18 -18 -18 -17 -16 -17 -15 -16 -16 -16 -16 -16 -16 -15 -14 -13
-24 -24 -23 -23 -23 -23 -24 -24 -24 -24 -24 -24 -24 -24 -24 -24 -23 -24 -23 -23 -23 -23 -22 -22 -21 -20 -19 -20 -19 -18 -18 -17 -18 -16 -17 -16 -15 -15 -16 -17 -17 -16 -16 -15 -14
-24 -24 -24 -23 -23 -24 -24 -25 -25 -25 -25 -25 -25 -25 -24 -24 -24 -24 -24 -23 -23 -23 -22 -22 -22 -21 -19 -20 -20 -20 -17 -17 -17 -16 -17 -16 -15 -16 -16 -17 -17 -17 -16 -16 -15

GFSSW_500_temp_117.txt.gz
Temp
-16 -15 -15 -15 -15 -15 -15 -14 -14 -15 -15 -15 -15 -14 -14 -15 -14 -15 -14 -13 -13 -12 -12 -12 -11 -11 -11 -11 -11 -11 -11 -11 -10 -10 -9 -9 -9 -9 -9 -9 -8 -8 -7 -8 -7
-17 -17 -16 -16 -16 -16 -15 -15 -15 -15 -15 -15 -15 -15 -15 -14 -15 -15 -14 -14 -13 -13 -13 -12 -12 -12 -12 -11 -11 -11 -11 -11 -10 -10 -10 -9 -9 -9 -9 -9 -9 -9 -8 -8 -7
-18 -18 -18 -17 -17 -17 -17 -16 -16 -16 -16 -16 -16 -15 -15 -15 -15 -15 -15 -15 -14 -13 -13 -13 -13 -12 -12 -12 -12 -12 -12 -12 -11 -10 -10 -10 -9 -9 -9 -9 -9 -9 -9 -8 -7
-19 -19 -19 -18 -18 -18 -18 -18 -17 -17 -16 -17 -17 -16 -15 -16 -16 -15 -15 -15 -15 -14 -14 -13 -13 -13 -13 -12 -12 -12 -12 -12 -11 -10 -10 -10 -10 -10 -10 -9 -9 -9 -9 -8 -8
-19 -19 -19 -19 -19 -19 -18 -18 -18 -18 -17 -18 -17 -16 -16 -16 -16 -16 -16 -15 -16 -14 -14 -14 -14 -13 -13 -12 -12 -12 -12 -11 -11 -10 -10 -10 -11 -11 -10 -10 -10 -9 -9 -9 -8
-20 -20 -20 -20 -19 -19 -19 -19 -18 -18 -18 -18 -16 -17 -17 -16 -17 -17 -16 -16 -15 -15 -15 -15 -14 -14 -13 -13 -12 -12 -11 -11 -11 -11 -10 -10 -11 -10 -11 -10 -9 -9 -9 -9 -9
-20 -20 -20 -20 -20 -19 -19 -19 -19 -19 -19 -19 -18 -18 -17 -16 -17 -17 -17 -17 -16 -15 -15 -15 -15 -14 -14 -13 -13 -12 -12 -11 -10 -10 -11 -11 -10 -11 -11 -10 -10 -10 -9 -9 -9
-21 -21 -21 -20 -20 -20 -19 -20 -20 -20 -20 -19 -19 -18 -18 -17 -18 -17 -17 -17 -17 -16 -15 -16 -15 -14 -14 -14 -13 -13 -12 -11 -11 -11 -11 -11 -10 -11 -11 -10 -10 -10 -10 -9 -9
-21 -21 -21 -21 -20 -20 -20 -20 -20 -20 -20 -20 -20 -19 -18 -18 -18 -17 -17 -17 -17 -17 -16 -16 -15 -15 -14 -14 -14 -13 -12 -11 -11 -11 -11 -10 -11 -10 -10 -11 -10 -10 -10 -9 -9
-21 -21 -21 -21 -21 -21 -20 -21 -21 -21 -21 -21 -20 -20 -18 -18 -18 -18 -17 -17 -17 -17 -17 -17 -16 -15 -15 -14 -13 -13 -12 -12 -11 -11 -11 -11 -11 -11 -10 -10 -11 -10 -10 -9 -9
-22 -22 -21 -21 -21 -21 -21 -21 -21 -21 -21 -20 -19 -18 -18 -18 -18 -18 -18 -18 -17 -18 -17 -17 -16 -14 -14 -14 -15 -14 -14 -13 -12 -12 -12 -11 -11 -12 -11 -10 -10 -11 -10 -10 -10
-21 -21 -22 -22 -21 -21 -21 -21 -20 -19 -19 -20 -20 -19 -19 -19 -19 -19 -18 -18 -18 -17 -17 -17 -16 -15 -16 -15 -14 -14 -14 -13 -13 -12 -11 -11 -10 -11 -11 -10 -10 -10 -10 -11 -10
-22 -21 -21 -22 -22 -22 -21 -20 -21 -20 -21 -20 -19 -19 -19 -19 -19 -19 -18 -18 -18 -17 -16 -16 -16 -16 -15 -15 -15 -14 -13 -13 -13 -13 -12 -11 -10 -10 -11 -11 -11 -10 -10 -10 -11
-22 -21 -21 -22 -22 -22 -21 -21 -21 -21 -21 -20 -20 -19 -19 -19 -19 -19 -19 -19 -18 -17 -17 -17 -16 -16 -16 -15 -15 -15 -14 -14 -14 -14 -13 -12 -10 -10 -10 -10 -10 -10 -10 -10 -10
-22 -21 -21 -22 -21 -21 -21 -21 -21 -21 -22 -21 -21 -20 -20 -20 -19 -19 -19 -19 -18 -18 -18 -16 -16 -16 -16 -15 -16 -15 -16 -15 -15 -14 -14 -13 -11 -9 -10 -10 -10 -11 -10 -10 -10
-22 -21 -21 -22 -22 -22 -22 -22 -22 -23 -23 -21 -20 -20 -20 -20 -19 -19 -19 -19 -19 -19 -19 -18 -17 -17 -16 -16 -17 -16 -16 -16 -16 -15 -14 -12 -12 -9 -9 -10 -10 -11 -11 -11 -10
-23 -22 -21 -22 -21 -22 -23 -23 -23 -23 -22 -21 -20 -20 -20 -20 -19 -19 -19 -19 -19 -18 -18 -17 -17 -16 -16 -17 -16 -16 -15 -16 -16 -16 -13 -12 -13 -9 -9 -10 -10 -10 -11 -11 -10
-22 -22 -22 -22 -22 -22 -22 -23 -24 -22 -21 -20 -20 -20 -20 -20 -20 -20 -19 -20 -19 -19 -18 -17 -17 -16 -16 -16 -16 -16 -17 -16 -16 -15 -13 -13 -13 -10 -9 -10 -10 -10 -11 -11 -10
-22 -22 -22 -22 -23 -23 -22 -23 -23 -21 -21 -21 -21 -21 -20 -20 -20 -20 -20 -19 -19 -18 -18 -18 -17 -17 -18 -17 -17 -17 -16 -17 -17 -17 -15 -14 -12 -12 -11 -10 -10 -11 -11 -11 -11
-22 -22 -22 -22 -23 -22 -23 -23 -23 -22 -21 -21 -21 -20 -20 -20 -20 -20 -20 -19 -19 -19 -19 -18 -18 -18 -18 -18 -17 -17 -17 -19 -18 -17 -16 -13 -12 -11 -11 -11 -11 -11 -11 -11 -11
-22 -22 -22 -22 -23 -23 -23 -23 -23 -22 -22 -21 -21 -21 -20 -20 -20 -20 -19 -19 -19 -19 -19 -18 -18 -18 -18 -18 -18 -18 -18 -18 -18 -18 -16 -13 -12 -11 -11 -11 -11 -12 -12 -12 -11
-22 -22 -22 -23 -23 -23 -23 -23 -23 -22 -22 -21 -21 -21 -21 -20 -20 -20 -20 -20 -20 -20 -19 -19 -19 -18 -18 -19 -19 -19 -19 -19 -19 -16 -16 -16 -13 -13 -13 -13 -13 -13 -13 -13 -12
-22 -22 -23 -23 -23 -23 -23 -23 -23 -23 -22 -22 -21 -21 -21 -21 -21 -21 -21 -21 -21 -20 -20 -20 -19 -19 -19 -19 -18 -18 -18 -19 -18 -18 -17 -17 -11 -13 -13 -13 -15 -15 -14 -14 -13
-22 -22 -23 -24 -23 -23 -22 -23 -23 -23 -23 -22 -22 -22 -22 -22 -21 -21 -21 -21 -21 -21 -21 -21 -21 -20 -18 -18 -19 -19 -19 -19 -19 -18 -15 -17 -12 -14 -14 -14 -16 -16 -16 -15 -14
-22 -22 -22 -23 -23 -24 -23 -23 -22 -22 -22 -22 -22 -22 -22 -22 -22 -22 -21 -21 -21 -22 -22 -22 -21 -21 -19 -19 -19 -19 -19 -19 -19 -18 -18 -13 -15 -14 -15 -16 -16 -16 -16 -16 -15
-22 -22 -22 -22 -22 -23 -23 -23 -23 -22 -23 -22 -21 -22 -23 -23 -23 -23 -23 -23 -23 -22 -23 -23 -22 -22 -20 -20 -21 -20 -19 -18 -17 -18 -17 -15 -15 -13 -15 -16 -16 -17 -17 -17 -16
-22 -22 -22 -22 -22 -23 -22 -22 -23 -24 -23 -23 -24 -23 -24 -24 -24 -24 -24 -24 -24 -24 -23 -23 -22 -22 -19 -21 -21 -21 -15 -17 -18 -17 -17 -16 -13 -16 -16 -16 -17 -17 -17 -16 -17

GFSSW_500_temp_123.txt.gz
Temp
-13 -13 -14 -14 -13 -13 -13 -13 -13 -12 -13 -12 -12 -12 -13 -13 -13 -13 -13 -14 -14 -14 -13 -13 -13 -12 -13 -12 -12 -12 -11 -11 -11 -11 -10 -10 -9 -9 -9 -9 -9 -9 -9 -9 -9
-14 -14 -14 -14 -14 -14 -14 -14 -13 -13 -13 -13 -13 -13 -13 -13 -14 -13 -14 -14 -14 -14 -14 -14 -13 -13 -12 -12 -12 -12 -12 -11 -11 -11 -11 -10 -10 -10 -10 -9 -10 -10 -9 -9 -9
-15 -15 -15 -15 -15 -15 -14 -14 -14 -14 -13 -13 -14 -13 -14 -14 -15 -13 -14 -14 -14 -15 -14 -14 -14 -13 -12 -12 -12 -12 -12 -11 -11 -11 -11 -10 -10 -10 -10 -10 -10 -10 -10 -10 -9
-17 -17 -16 -16 -16 -16 -15 -15 -15 -14 -14 -14 -14 -15 -14 -15 -14 -14 -15 -15 -14 -15 -15 -15 -15 -14 -14 -13 -13 -12 -12 -11 -11 -11 -11 -11 -10 -10 -10 -10 -10 -10 -10 -10 -10
-18 -18 -17 -17 -16 -16 -16 -16 -15 -15 -15 -15 -15 -15 -16 -15 -15 -14 -15 -16 -15 -15 -15 -15 -15 -15 -14 -14 -13 -13 -12 -12 -12 -11 -11 -11 -10 -10 -10 -10 -10 -9 -9 -10 -10
-18 -18 -18 -17 -17 -17 -17 -17 -17 -16 -16 -16 -16 -16 -16 -15 -15 -15 -15 -16 -15 -16 -16 -16 -16 -15 -15 -15 -14 -13 -13 -12 -12 -12 -12 -11 -11 -10 -10 -10 -10 -10 -9 -9 -10
-20 -19 -18 -18 -17 -17 -17 -17 -17 -17 -17 -17 -17 -17 -17 -15 -16 -16 -15 -16 -16 -16 -16 -16 -16 -16 -15 -15 -14 -14 -13 -13 -13 -13 -12 -11 -11 -11 -11 -10 -10 -10 -10 -10 -10
-21 -21 -20 -20 -19 -18 -17 -18 -18 -18 -18 -18 -18 -17 -17 -17 -16 -16 -16 -16 -16 -17 -16 -17 -17 -16 -15 -15 -15 -14 -14 -13 -13 -13 -12 -12 -11 -12 -11 -10 -10 -10 -10 -10 -10
-21 -21 -21 -21 -20 -20 -19 -19 -19 -19 -19 -19 -19 -18 -17 -17 -16 -17 -17 -16 -17 -16 -17 -17 -17 -16 -16 -15 -15 -15 -13 -13 -13 -13 -13 -12 -11 -12 -11 -11 -11 -10 -10 -10 -10
-22 -22 -21 -21 -21 -21 -20 -20 -20 -20 -19 -19 -19 -19 -18 -16 -17 -17 -18 -17 -17 -16 -17 -17 -17 -16 -16 -15 -14 -15 -14 -14 -14 -14 -13 -13 -12 -12 -11 -11 -11 -10 -10 -11 -10
-22 -22 -22 -21 -21 -21 -21 -22 -22 -21 -20 -19 -18 -18 -17 -17 -18 -18 -18 -17 -17 -17 -17 -17 -17 -16 -16 -16 -15 -16 -16 -15 -15 -15 -14 -13 -12 -12 -11 -10 -10 -11 -10 -11 -11
-22 -22 -22 -22 -22 -22 -22 -22 -22 -20 -19 -19 -19 -19 -19 -18 -18 -19 -18 -18 -17 -18 -17 -18 -17 -17 -17 -17 -17 -16 -16 -16 -15 -15 -14 -14 -12 -12 -11 -10 -10 -10 -10 -11 -11
-24 -23 -22 -22 -22 -22 -21 -21 -22 -22 -21 -21 -20 -20 -19 -19 -19 -19 -19 -18 -17 -17 -18 -18 -17 -17 -18 -17 -17 -16 -16 -16 -16 -15 -14 -14 -12 -12 -11 -11 -10 -10 -11 -11 -11
-26 -24 -23 -22 -23 -22 -21 -21 -22 -22 -22 -21 -21 -20 -20 -19 -20 -19 -19 -17 -18 -18 -17 -17 -17 -17 -18 -18 -17 -17 -16 -16 -16 -16 -15 -14 -13 -13 -12 -11 -11 -11 -11 -11 -11
-27 -26 -24 -23 -22 -22 -21 -21 -23 -22 -22 -22 -22 -21 -21 -20 -19 -20 -19 -19 -18 -18 -19 -18 -18 -18 -18 -18 -18 -17 -17 -17 -17 -16 -16 -15 -14 -12 -12 -11 -11 -12 -11 -11 -11
-27 -26 -25 -23 -22 -22 -22 -22 -22 -22 -22 -22 -21 -21 -21 -21 -20 -20 -20 -20 -19 -20 -20 -19 -19 -19 -19 -19 -19 -18 -18 -17 -17 -17 -15 -14 -14 -11 -12 -12 -12 -12 -12 -11 -11
-27 -26 -24 -24 -22 -22 -21 -22 -22 -22 -22 -22 -21 -21 -20 -20 -20 -20 -20 -20 -19 -20 -19 -19 -19 -19 -19 -19 -19 -18 -18 -18 -18 -17 -15 -15 -15 -12 -12 -12 -12 -12 -12 -12 -12
-27 -27 -25 -24 -23 -24 -23 -22 -22 -22 -22 -21 -21 -21 -21 -21 -21 -21 -21 -21 -20 -20 -19 -19 -19 -18 -18 -18 -18 -18 -19 -18 -17 -16 -16 -16 -14 -13 -13 -13 -12 -12 -12 -12 -13
-27 -27 -25 -23 -24 -23 -23 -22 -22 -21 -21 -21 -21 -21 -21 -21 -21 -21 -21 -20 -20 -19 -19 -20 -19 -19 -18 -18 -18 -18 -18 -18 -18 -17 -16 -15 -14 -13 -13 -13 -13 -12 -12 -13 -13
-27 -27 -26 -23 -23 -22 -22 -22 -21 -21 -21 -21 -21 -21 -21 -21 -20 -21 -21 -20 -20 -20 -20 -20 -19 -19 -19 -19 -19 -18 -18 -19 -19 -18 -17 -15 -14 -13 -13 -14 -14 -13 -13 -13 -12
-28 -27 -25 -24 -24 -23 -23 -22 -21 -22 -21 -21 -21 -21 -21 -20 -20 -20 -20 -20 -20 -20 -20 -20 -20 -19 -19 -19 -19 -19 -19 -19 -19 -19 -18 -16 -14 -13 -13 -14 -14 -14 -13 -13 -13
-28 -27 -26 -26 -25 -23 -23 -22 -21 -21 -21 -21 -21 -21 -21 -20 -20 -20 -20 -20 -20 -20 -20 -20 -20 -20 -20 -20 -20 -20 -20 -20 -20 -20 -19 -17 -13 -14 -15 -14 -15 -15 -14 -14 -14
-27 -27 -26 -25 -24 -23 -23 -22 -21 -22 -21 -21 -21 -21 -21 -21 -21 -21 -20 -21 -20 -20 -20 -20 -20 -20 -21 -20 -20 -20 -20 -20 -20 -19 -19 -19 -13 -15 -15 -15 -15 -16 -16 -15 -15
-27 -27 -26 -25 -23 -23 -23 -22 -22 -22 -22 -21 -21 -21 -21 -21 -21 -21 -21 -21 -21 -21 -21 -21 -21 -21 -20 -20 -21 -21 -20 -21 -21 -20 -18 -18 -13 -15 -15 -15 -16 -17 -17 -16 -15
-27 -27 -25 -24 -23 -23 -23 -22 -22 -21 -21 -22 -22 -22 -22 -21 -21 -21 -21 -21 -21 -21 -21 -21 -21 -21 -20 -21 -21 -21 -21 -21 -20 -19 -19 -15 -17 -15 -16 -16 -16 -16 -16 -16 -15
-27 -26 -24 -23 -24 -23 -23 -22 -21 -21 -21 -21 -22 -22 -22 -22 -21 -21 -21 -21 -21 -21 -21 -21 -21 -21 -21 -21 -22 -21 -21 -20 -20 -19 -19 -18 -16 -17 -17 -17 -17 -16 -16 -16 -16
-26 -25 -24 -24 -23 -23 -21 -22 -22 -21 -21 -22 -22 -22 -22 -22 -23 -23 -23 -23 -22 -22 -22 -22 -22 -22 -22 -22 -22 -21 -20 -20 -20 -19 -19 -18 -15 -18 -17 -17 -15 -15 -17 -17 -17